Chicopee, MA

10:19 PM EST on February 21, 2017 (GMT -0500)
Westover Air Reserve Base / Metropolitan Airport

Weather History for KCEF - November, 2013

Change the Weather History Date:

Saturday, November 16, 2013

  Actual Average Record
Temperature  
Mean Temperature 46 °F -  
Max Temperature 60 °F 46 °F 69 °F (2006)
Min Temperature 30 °F 29 °F 10 °F (1996)
Degree Days  
Heating Degree Days 20    
Moisture  
Dew Point 31 °F    
Average Humidity 70    
Maximum Humidity 99    
Minimum Humidity 32    
Precipitation  
Precipitation 0.00 in - - ()
Sea Level Pressure  
Sea Level Pressure 30.29 in    
Wind  
Wind Speed 2 mph (ENE)    
Max Wind Speed 6 mph    
Max Gust Speed -    
Visibility 10 miles    
Events      
Averages and records for this station are not official NWS values.
T = Trace of Precipitation, MM = Missing Value Source: NWS Daily Summary

Daily Weather History Graph

Daily Weather History Graph

Search for Another Location

Airport or City:

Trip Planner

Search our weather history database for the weather conditions in past years. The results will help you decide how hot, cold, wet, or windy it might be!

Date:

Astronomy

Nov. 16, 2013 Rise Set
Actual Time 6:42 AM EST 4:27 PM EST
Civil Twilight 6:11 AM EST 4:57 PM EST
Nautical Twilight 5:37 AM EST 5:31 PM EST
Astronomical Twilight 5:04 AM EST 6:04 PM EST
Moon 4:01 PM EST (11/16) 5:34 AM EST (11/16)
Length of Visible Light 10h 45m
Length of Day
9h 45m
Waxing Gibbous, 99% of the Moon is Illuminated
Nov 16
Waxing Gibbous
Nov 17
Full
Nov 25
Last Quarter
Dec 2
New
Dec 9
First Quarter

Hourly Weather History & Observations

Time (EST) Temp. Windchill Dew Point Humidity Pressure Visibility Wind Dir Wind Speed Gust Speed Precip Events Conditions
12:58 AM 33.8 °F - 30.6 °F 88% 30.22 in 10.0 mi NE 1.2 mph - N/A   Scattered Clouds
1:58 AM 31.6 °F - 30.0 °F 94% 30.22 in 10.0 mi NE 2.3 mph - N/A   Scattered Clouds
2:58 AM 33.3 °F - 31.1 °F 92% 30.25 in 10.0 mi ENE 2.3 mph - N/A   Overcast
3:58 AM 34.9 °F 32.0 °F 32.0 °F 89% 30.25 in 10.0 mi NW 3.5 mph - N/A   Partly Cloudy
4:58 AM 34.5 °F 30.4 °F 32.5 °F 92% 30.25 in 10.0 mi NNE 4.6 mph - N/A   Partly Cloudy
5:58 AM 35.6 °F - 32.2 °F 87% 30.27 in 10.0 mi ENE 2.3 mph - N/A   Scattered Clouds
6:58 AM 36.9 °F - 33.6 °F 88% 30.27 in 10.0 mi Calm Calm - N/A   Overcast
7:58 AM 38.7 °F - 32.9 °F 80% 30.32 in 10.0 mi Calm Calm - N/A   Mostly Cloudy
8:58 AM 44.6 °F - 29.5 °F 55% 30.32 in 10.0 mi Calm Calm - N/A   Clear
9:58 AM 50.2 °F - 35.1 °F 56% 30.32 in 10.0 mi Variable 3.5 mph - N/A   Clear
10:58 AM 54.1 °F - 33.3 °F 45% 30.32 in 10.0 mi Variable 1.2 mph - N/A   Clear
11:58 AM 56.5 °F - 32.0 °F 39% 30.30 in 10.0 mi Variable 3.5 mph - N/A   Clear
12:58 PM 58.6 °F - 30.6 °F 34% 30.28 in 10.0 mi Variable 3.5 mph - N/A   Clear
1:58 PM 59.7 °F - 29.8 °F 32% 30.28 in 10.0 mi South 3.5 mph - N/A   Clear
2:58 PM 60.3 °F - 30.2 °F 32% 30.28 in 10.0 mi Variable 1.2 mph - N/A   Clear
3:58 PM 57.7 °F - 30.6 °F 36% 30.30 in 10.0 mi SE 2.3 mph - N/A   Clear
4:58 PM 50.9 °F - 30.9 °F 46% 30.31 in 10.0 mi SSE 5.8 mph - N/A   Clear
5:58 PM 40.8 °F - 29.3 °F 64% 30.31 in 10.0 mi Calm Calm - N/A   Clear
6:58 PM 37.2 °F - 32.2 °F 82% 30.31 in 10.0 mi NNE 2.3 mph - N/A   Clear
7:58 PM 37.0 °F - 30.4 °F 77% 30.33 in 10.0 mi Calm Calm - N/A   Clear
8:58 PM 35.6 °F - 30.0 °F 80% 30.32 in 10.0 mi Calm Calm - N/A   Clear
9:58 PM 32.4 °F - 30.7 °F 94% 30.32 in 10.0 mi South 1.2 mph - N/A   Clear
10:58 PM 31.3 °F - 29.3 °F 92% 30.32 in 10.0 mi Calm Calm - N/A   Clear
11:58 PM 30.2 °F - 29.8 °F 99% 30.32 in 10.0 mi NE 2.3 mph - N/A   Clear